STARLINK-36316, 67705

Orbit data source: Space-Track

STARLINK-36316, 67705 is a payload satellite owned by SpaceX/Seattle (US) in SSO that was launched on Sat, 07 Feb 2026 UTC via an FALCON 9 launch vehicle from the Air Force Western Test Range (AFWTR). Payload-class satellites include a variety of spacecraft equipped with specific instruments for various scientific and technological missions. These include communications satellites like Starlink; space stations such as the ISS; scientific satellites like the Hubble; Earth observation satellites from companies like Planet Labs, Umbra, and HawkEye 360; GPS; miniature CubeSats for education and research; and military/defense satellites.

Loading next visibility...
Identifier
67705, 2026-025N
Orbit
SSO
Country
Flag of USUS
Related business
Manufacturer
SpaceX/Seattle
Mission
Operational spacecraft
Bus & Motor
STARLINK V2MO, Unknown motor
Mass
575 kg wet, ~530 kg dry
Launch date (UTC)
2026-02-07 (2 months ago)
Launch vehicle
FALCON 9
Launch site
Air Force Western Test Range (AFWTR)
Object type
Payload
Rocket body
Debris
Shape & HBR
Unknown shape, 17.7 m
Radar Cross Section
RCS unknown

Expand to show TLE details & history
Last TLE update: 1 day ago

TLE from 1 day ago
0 STARLINK-36316
1 67705U 26025N   26103.30015984  .00005171  00000-0  16240-3 0  9992
2 67705  97.2863 215.4464 0000253   8.5596 351.5651 15.33446093 11311
Epoch: 2026-04-13T07:12Z
TLE epoch observation values (Epoch: 2026-04-13T07:12:13.810Z)
Latitude
-0°
Longitude
-94.10388°
Altitude
468.481 km
Speed
7.632 km/s
True Right ascension
14h 21m 47s
True Declination
0° 00' 00"
Sunlit
Object was in full shadow at epoch
Visualization orbit readout
Latitude
Unknown
Longitude
Unknown
Altitude
Unknown
Speed
Unknown
Apparent Right ascension
Unknown
Apparent Declination
Unknown
Sunlit
N/A
Visualization observer readout
Local Sidereal Time
15:06:35
Azimuth
Unknown
Elevation
Unknown
Doppler factor
Unknown
Orbital elements
Apogee altitude
462.656 km
Perigee altitude
462.31 km
Semi-major axis
6,840.62 km
Eccentricity
0.00003
Inclination
97.2863°
RAAN
215.4464°
Arg. of periapsis
8.5596°
True anomaly
351.56467°
Mean anomaly
351.5651°
Eccentric anomaly
351.56489°
Mean motion
3.83619 °/min
Orbital period
93.84 mins
BSTAR
0.0001624
Loading maneuver chart data...
Computing Atmospheric mass density...
Loading historical data...
Loading historical data...
Loading historical data...
Loading historical data...
Loading historical data...
Loading historical data...
Loading historical data...

Documentation

Showing up to 5 results
|